QPF
0.00 0.00 0.00 0.00 0.00 0.00 0.00 0.00 0.00 0.00 0.00 0.00 0.00 0.00 0.00 0.00 0.00 0.00 0.00 0.00 0.00 0.00 0.00 0.00 0.00 0.00 0.00 0.00 0.00 0.00 0.00 0.00 0.00 0.00 0.00 0.00 0.00 0.00 0.00 0.00 0.00 0.00 0.00 0.00
0.00 0.00 0.00 0.00 0.00 0.00 0.00 0.00 0.00 0.00 0.00 0.00 0.00 0.00 0.00 0.00 0.00 0.00 0.00 0.00 0.00 0.00 0.00 0.00 0.00 0.00 0.00 0.00 0.00 0.00 0.00 0.00 0.00 0.00 0.00 0.00 0.00 0.00 0.00 0.00 0.00 0.00 0.00 0.00
0.00 0.00 0.00 0.00 0.00 0.00 0.00 0.00 0.00 0.00 0.00 0.00 0.00 0.00 0.00 0.00 0.00 0.00 0.00 0.00 0.00 0.00 0.00 0.00 0.00 0.00 0.00 0.00 0.00 0.00 0.00 0.00 0.00 0.00 0.00 0.00 0.00 0.00 0.00 0.00 0.00 0.00 0.00 0.00
0.00 0.00 0.00 0.00 0.00 0.00 0.00 0.00 0.00 0.00 0.00 0.00 0.00 0.00 0.00 0.00 0.00 0.00 0.00 0.00 0.00 0.00 0.00 0.00 0.00 0.00 0.00 0.00 0.00 0.00 0.00 0.00 0.00 0.00 0.00 0.00 0.00 0.00 0.00 0.00 0.00 0.00 0.00 0.00
0.00 0.00 0.00 0.00 0.00 0.00 0.00 0.00 0.00 0.00 0.00 0.00 0.00 0.00 0.00 0.00 0.00 0.00 0.00 0.00 0.00 0.00 0.00 0.00 0.00 0.00 0.00 0.00 0.00 0.00 0.00 0.00 0.00 0.00 0.00 0.00 0.00 0.00 0.00 0.00 0.00 0.00 0.00 0.00
0.00 0.00 0.00 0.00 0.00 0.00 0.00 0.00 0.00 0.00 0.00 0.00 0.00 0.00 0.00 0.00 0.00 0.00 0.00 0.00 0.00 0.00 0.00 0.00 0.00 0.00 0.00 0.00 0.00 0.00 0.00 0.00 0.00 0.00 0.00 0.00 0.00 0.02 0.01 0.00 0.00 0.00 0.00 0.00
0.00 0.00 0.00 0.00 0.00 0.00 0.00 0.00 0.00 0.00 0.00 0.00 0.00 0.00 0.00 0.00 0.00 0.00 0.00 0.00 0.00 0.00 0.00 0.00 0.00 0.00 0.00 0.00 0.00 0.00 0.00 0.00 0.00 0.00 0.01 0.00 0.03 0.12 0.04 0.01 0.00 0.00 0.00 0.00
0.00 0.00 0.00 0.00 0.00 0.00 0.00 0.00 0.00 0.00 0.00 0.00 0.00 0.00 0.00 0.00 0.00 0.00 0.00 0.00 0.00 0.00 0.00 0.00 0.00 0.00 0.00 0.00 0.00 0.00 0.00 0.00 0.00 0.00 0.02 0.02 0.06 0.12 0.08 0.07 0.04 0.02 0.01 0.00
0.00 0.00 0.00 0.00 0.00 0.00 0.00 0.00 0.00 0.00 0.00 0.00 0.00 0.00 0.00 0.00 0.00 0.00 0.00 0.00 0.00 0.00 0.00 0.00 0.00 0.00 0.00 0.00 0.00 0.00 0.00 0.00 0.00 0.01 0.00 0.06 0.14 0.15 0.18 0.23 0.23 0.19 0.11 0.02
0.00 0.00 0.00 0.00 0.00 0.00 0.00 0.00 0.00 0.00 0.00 0.00 0.00 0.00 0.00 0.00 0.00 0.00 0.00 0.00 0.00 0.00 0.00 0.00 0.00 0.00 0.00 0.00 0.00 0.00 0.00 0.00 0.00 0.00 0.01 0.04 0.12 0.11 0.13 0.18 0.17 0.04 0.00 0.00
0.00 0.00 0.00 0.00 0.00 0.00 0.00 0.00 0.00 0.00 0.00 0.00 0.01 0.00 0.00 0.00 0.00 0.00 0.00 0.00 0.01 0.00 0.00 0.00 0.00 0.00 0.00 0.00 0.00 0.00 0.00 0.00 0.00 0.00 0.00 0.01 0.00 0.01 0.02 0.04 0.01 0.00 0.00 0.00
0.00 0.00 0.00 0.00 0.00 0.00 0.00 0.00 0.00 0.00 0.00 0.00 0.02 0.00 0.00 0.00 0.00 0.00 0.01 0.01 0.01 0.00 0.01 0.00 0.00 0.00 0.00 0.00 0.00 0.00 0.00 0.00 0.00 0.00 0.00 0.00 0.00 0.03 0.03 0.02 0.01 0.00 0.00 0.00
0.00 0.00 0.00 0.00 0.00 0.00 0.00 0.00 0.00 0.00 0.00 0.01 0.01 0.00 0.00 0.00 0.01 0.01 0.00 0.00 0.00 0.02 0.02 0.01 0.00 0.00 0.00 0.00 0.00 0.00 0.00 0.00 0.00 0.00 0.00 0.00 0.02 0.04 0.01 0.01 0.00 0.00 0.00 0.00
0.00 0.00 0.00 0.00 0.00 0.00 0.00 0.00 0.00 0.00 0.00 0.00 0.00 0.00 0.00 0.00 0.00 0.00 0.00 0.00 0.01 0.01 0.00 0.00 0.00 0.00 0.00 0.00 0.00 0.00 0.00 0.00 0.00 0.00 0.00 0.00 0.05 0.03 0.01 0.01 0.00 0.00 0.00 0.00
0.00 0.00 0.00 0.00 0.00 0.00 0.00 0.00 0.00 0.00 0.00 0.00 0.00 0.00 0.00 0.01 0.00 0.00 0.00 0.00 0.01 0.01 0.00 0.00 0.00 0.00 0.00 0.00 0.00 0.00 0.00 0.00 0.00 0.00 0.00 0.01 0.03 0.04 0.01 0.00 0.00 0.00 0.00 0.00
0.00 0.00 0.00 0.00 0.00 0.00 0.00 0.00 0.00 0.00 0.00 0.00 0.00 0.00 0.01 0.01 0.00 0.00 0.00 0.00 0.00 0.00 0.00 0.00 0.00 0.00 0.00 0.00 0.00 0.00 0.00 0.00 0.00 0.00 0.00 0.00 0.01 0.05 0.00 0.00 0.00 0.00 0.00 0.00
0.00 0.00 0.00 0.00 0.00 0.00 0.00 0.00 0.00 0.00 0.00 0.00 0.00 0.00 0.00 0.00 0.00 0.00 0.00 0.00 0.00 0.00 0.01 0.00 0.00 0.00 0.00 0.00 0.00 0.00 0.00 0.00 0.00 0.00 0.00 0.00 0.02 0.03 0.00 0.00 0.00 0.00 0.00 0.00
0.00 0.00 0.00 0.00 0.00 0.00 0.00 0.00 0.00 0.00 0.00 0.00 0.00 0.00 0.00 0.00 0.00 0.00 0.00 0.00 0.00 0.00 0.00 0.00 0.00 0.00 0.00 0.00 0.00 0.00 0.00 0.00 0.00 0.00 0.01 0.01 0.03 0.00 0.00 0.00 0.00 0.00 0.00 0.00
0.00 0.00 0.01 0.00 0.00 0.00 0.00 0.00 0.00 0.00 0.00 0.00 0.00 0.00 0.00 0.00 0.00 0.00 0.00 0.00 0.00 0.00 0.00 0.00 0.00 0.00 0.00 0.00 0.00 0.00 0.00 0.00 0.00 0.00 0.01 0.04 0.01 0.00 0.00 0.00 0.00 0.00 0.00 0.00
0.00 0.00 0.01 0.00 0.00 0.00 0.00 0.00 0.00 0.00 0.00 0.00 0.00 0.00 0.00 0.01 0.01 0.00 0.00 0.00 0.00 0.00 0.00 0.00 0.00 0.00 0.00 0.01 0.01 0.01 0.01 0.00 0.00 0.00 0.02 0.01 0.00 0.00 0.00 0.00 0.00 0.00 0.00 0.00
0.00 0.01 0.01 0.01 0.02 0.00 0.00 0.00 0.00 0.01 0.02 0.01 0.00 0.00 0.01 0.01 0.01 0.00 0.00 0.00 0.00 0.01 0.01 0.00 0.00 0.00 0.01 0.00 0.00 0.00 0.00 0.00 0.00 0.00 0.00 0.00 0.00 0.00 0.00 0.00 0.00 0.00 0.00 0.00
0.00 0.00 0.00 0.01 0.01 0.00 0.00 0.00 0.01 0.01 0.00 0.00 0.01 0.01 0.01 0.01 0.00 0.00 0.00 0.01 0.01 0.01 0.00 0.01 0.01 0.01 0.00 0.00 0.00 0.00 0.00 0.00 0.00 0.00 0.00 0.00 0.00 0.00 0.00 0.00 0.00 0.00 0.00 0.01
0.00 0.00 0.00 0.00 0.00 0.00 0.00 0.00 0.00 0.00 0.00 0.01 0.00 0.01 0.01 0.01 0.01 0.01 0.01 0.01 0.01 0.01 0.01 0.01 0.01 0.00 0.00 0.00 0.00 0.00 0.00 0.01 0.00 0.00 0.00 0.00 0.00 0.00 0.00 0.00 0.00 0.01 0.01 0.01
0.00 0.00 0.00 0.00 0.00 0.00 0.00 0.00 0.00 0.00 0.00 0.00 0.00 0.00 0.00 0.00 0.00 0.00 0.01 0.01 0.01 0.00 0.00 0.00 0.00 0.00 0.00 0.00 0.00 0.00 0.01 0.00 0.00 0.00 0.00 0.00 0.00 0.00 0.00 0.00 0.01 0.01 0.01 0.00
0.00 0.00 0.01 0.01 0.00 0.00 0.00 0.00 0.00 0.00 0.00 0.00 0.00 0.00 0.00 0.00 0.00 0.01 0.00 0.00 0.00 0.00 0.00 0.00 0.00 0.00 0.00 0.00 0.00 0.01 0.00 0.00 0.00 0.00 0.00 0.00 0.00 0.00 0.00 0.00 0.00 0.00 0.00 0.00
0.00 0.00 0.02 0.01 0.01 0.03 0.02 0.01 0.01 0.00 0.00 0.00 0.00 0.00 0.00 0.00 0.01 0.00 0.00 0.00 0.00 0.00 0.00 0.00 0.00 0.00 0.00 0.00 0.01 0.01 0.00 0.00 0.00 0.00 0.00 0.00 0.00 0.00 0.00 0.00 0.00 0.00 0.00 0.00
MSLP
1006.79 1005.78 1005.45 1006.49 1006.97 1006.85 1006.48 1006.00 1005.40 1005.03 1005.37 1006.03 1005.40 1004.93 1004.43 1004.22 1004.36 1004.58 1005.34 1006.31 1007.08 1007.67 1008.12 1008.53 1008.78 1009.03 1009.21 1009.19 1009.13 1008.92 1008.67 1008.29 1007.76 1006.96 1006.07 1005.04 1004.23 1003.90 1004.01 1004.01 1004.16 1004.41 1004.76 1005.26
1006.61 1005.84 1007.21 1007.68 1007.60 1007.32 1006.77 1006.08 1005.40 1005.53 1005.58 1006.04 1005.40 1004.48 1003.84 1003.27 1003.91 1005.27 1005.96 1006.73 1007.25 1007.69 1008.12 1008.47 1008.65 1008.77 1008.96 1009.07 1009.15 1009.04 1008.85 1008.34 1007.72 1006.79 1006.15 1005.38 1004.01 1002.91 1002.95 1003.17 1003.24 1003.65 1004.34 1005.05
1006.70 1006.55 1007.97 1008.00 1007.52 1007.17 1006.69 1006.45 1006.45 1006.77 1006.54 1006.08 1004.83 1003.65 1003.20 1003.53 1004.83 1005.76 1006.67 1007.17 1007.31 1007.66 1008.16 1008.35 1008.53 1008.57 1008.71 1008.60 1008.75 1008.94 1008.97 1008.53 1007.57 1006.95 1006.05 1005.24 1004.49 1003.47 1002.85 1002.44 1002.80 1004.28 1003.57 1004.63
1007.12 1007.32 1008.08 1007.92 1007.55 1007.57 1007.37 1007.41 1007.83 1007.34 1006.77 1005.44 1005.50 1003.27 1003.15 1003.01 1004.03 1005.09 1006.11 1006.62 1007.05 1007.70 1008.28 1008.38 1008.40 1008.34 1008.45 1008.32 1008.44 1008.63 1008.83 1008.70 1007.93 1007.02 1005.85 1005.13 1004.37 1002.96 1002.20 1002.00 1001.85 1002.42 1002.67 1003.05
1007.05 1007.67 1007.88 1007.95 1007.86 1008.58 1008.30 1008.43 1008.32 1007.60 1006.53 1005.56 1004.29 1003.21 1002.62 1002.89 1003.74 1004.26 1004.99 1005.72 1006.94 1007.58 1008.21 1008.48 1008.59 1008.40 1008.16 1008.10 1008.17 1008.63 1008.50 1008.75 1008.28 1007.49 1006.13 1005.31 1004.23 1003.30 1002.51 1002.03 1001.97 1001.09 1002.17 1003.46
1008.08 1008.34 1008.90 1008.44 1008.80 1008.92 1009.26 1008.73 1007.73 1006.48 1005.15 1004.53 1003.58 1004.21 1003.40 1003.31 1003.46 1004.28 1004.85 1005.54 1006.58 1007.28 1007.97 1008.42 1008.59 1008.46 1008.08 1007.94 1007.96 1008.51 1008.66 1008.76 1008.62 1008.01 1007.25 1005.63 1004.87 1004.24 1003.23 1001.81 1002.11 1002.70 1003.07 1003.48
1007.77 1007.70 1008.63 1009.63 1008.84 1008.33 1008.40 1008.41 1007.24 1006.00 1005.08 1004.22 1003.94 1003.96 1003.52 1003.81 1004.44 1005.29 1006.15 1006.66 1007.06 1007.65 1008.15 1008.54 1008.67 1008.67 1008.58 1008.42 1008.44 1008.79 1009.09 1008.97 1008.80 1008.44 1008.02 1006.76 1005.88 1005.20 1004.37 1003.76 1003.14 1003.11 1002.71 1002.51
1008.34 1008.39 1008.98 1009.50 1009.72 1009.52 1009.12 1008.99 1008.60 1007.10 1006.71 1005.84 1006.29 1004.65 1003.39 1004.59 1005.35 1006.77 1007.26 1007.71 1008.71 1009.07 1009.22 1009.15 1009.09 1009.41 1009.28 1009.17 1008.98 1009.18 1009.25 1009.38 1009.21 1008.88 1008.44 1007.42 1006.97 1006.24 1005.51 1004.87 1004.47 1004.07 1003.75 1003.58
1009.90 1009.23 1009.65 1009.87 1009.75 1010.06 1009.07 1009.10 1009.11 1009.24 1009.06 1007.28 1006.03 1005.16 1005.11 1005.95 1007.32 1008.01 1008.53 1009.11 1008.88 1009.69 1009.14 1009.15 1009.82 1010.47 1010.48 1010.35 1010.15 1009.86 1009.54 1009.57 1009.64 1009.46 1009.09 1008.07 1007.93 1007.01 1006.49 1006.19 1005.88 1006.36 1005.72 1005.45
1011.44 1011.01 1010.07 1010.13 1010.93 1009.99 1009.83 1009.76 1009.83 1010.07 1009.34 1008.09 1007.09 1006.75 1005.65 1006.94 1008.07 1008.16 1008.74 1009.64 1010.82 1009.81 1009.18 1010.00 1010.46 1010.68 1010.73 1010.55 1011.22 1009.92 1009.41 1009.96 1009.84 1009.83 1009.73 1009.42 1009.56 1008.04 1006.94 1006.69 1006.92 1006.49 1006.48 1005.74
1012.83 1012.35 1011.07 1010.55 1009.72 1009.18 1009.35 1009.25 1009.57 1009.72 1010.27 1009.68 1008.67 1007.42 1007.39 1008.05 1008.59 1009.42 1010.65 1011.84 1012.55 1012.66 1010.31 1010.45 1010.67 1010.60 1010.77 1010.92 1010.52 1010.17 1010.03 1010.01 1010.02 1010.11 1010.13 1010.17 1009.52 1009.34 1007.67 1007.49 1007.33 1007.40 1006.87 1007.12
1013.84 1013.83 1012.33 1010.98 1010.02 1010.50 1010.72 1010.60 1010.70 1010.97 1011.47 1011.38 1010.58 1008.92 1008.87 1008.64 1009.66 1010.80 1011.87 1012.34 1013.70 1013.55 1013.02 1012.64 1010.65 1010.83 1010.94 1011.07 1010.82 1010.61 1010.72 1010.59 1010.18 1010.10 1010.30 1010.27 1009.93 1009.59 1008.28 1008.05 1007.83 1007.74 1007.55 1007.88
1015.36 1014.82 1013.40 1011.06 1010.62 1010.91 1010.58 1010.46 1010.76 1011.31 1011.61 1011.54 1010.78 1009.24 1008.80 1008.93 1009.57 1010.79 1011.59 1011.96 1013.03 1014.25 1014.12 1013.84 1011.77 1011.24 1011.53 1011.04 1010.87 1010.74 1010.63 1010.65 1010.82 1010.32 1010.27 1010.42 1010.28 1010.30 1009.26 1009.18 1008.71 1008.94 1008.53 1008.49
1017.25 1016.20 1014.55 1012.81 1011.41 1011.13 1010.66 1010.67 1010.84 1011.13 1011.25 1011.00 1010.42 1009.34 1009.15 1010.04 1010.43 1010.82 1011.55 1012.27 1012.98 1013.70 1014.02 1013.44 1012.53 1011.75 1011.38 1011.24 1010.98 1011.11 1010.94 1010.47 1010.61 1010.81 1010.48 1010.21 1010.36 1010.13 1009.79 1009.49 1009.49 1009.62 1009.35 1009.55
1016.87 1016.06 1015.01 1013.55 1012.50 1011.76 1011.06 1010.63 1010.49 1010.47 1010.44 1010.29 1009.94 1009.59 1009.73 1010.89 1011.38 1011.64 1011.82 1012.93 1012.93 1012.94 1013.01 1012.86 1012.45 1011.87 1012.05 1011.73 1011.60 1011.73 1011.94 1011.67 1011.44 1011.27 1010.98 1010.04 1009.89 1009.65 1009.34 1009.90 1010.30 1010.44 1010.47 1010.39
1016.72 1016.80 1015.87 1014.17 1012.61 1011.51 1010.79 1010.47 1010.23 1010.01 1010.00 1010.03 1009.91 1010.01 1010.78 1011.79 1012.08 1012.46 1013.04 1012.89 1012.98 1013.23 1012.81 1012.84 1013.00 1012.37 1012.26 1011.84 1012.30 1012.79 1012.80 1012.37 1012.08 1011.59 1010.95 1010.22 1009.54 1009.40 1010.01 1010.74 1011.23 1011.32 1011.27 1011.18
1016.99 1017.43 1016.43 1014.40 1013.10 1012.77 1011.15 1009.93 1010.02 1010.10 1010.46 1010.62 1010.70 1010.96 1011.29 1012.03 1012.61 1012.89 1013.11 1013.13 1012.98 1013.13 1012.96 1012.67 1012.81 1012.76 1012.93 1013.03 1013.24 1013.08 1012.77 1012.60 1012.18 1011.71 1010.91 1010.35 1009.76 1010.06 1011.07 1011.77 1012.16 1012.09 1012.04 1012.11
1017.09 1018.44 1017.61 1016.00 1015.09 1013.20 1010.54 1010.57 1011.11 1010.88 1011.08 1011.13 1011.19 1011.60 1012.58 1013.01 1013.37 1013.40 1013.22 1013.03 1013.27 1013.25 1013.58 1013.60 1013.56 1013.45 1013.50 1013.57 1013.66 1013.47 1012.94 1012.42 1012.11 1011.70 1010.96 1010.17 1010.26 1011.31 1012.12 1012.73 1012.89 1012.90 1012.97 1012.81
1016.69 1017.80 1017.94 1017.24 1015.80 1013.80 1011.19 1010.92 1011.71 1011.93 1011.92 1012.09 1012.52 1013.25 1013.64 1013.86 1013.61 1013.27 1013.34 1013.84 1014.07 1013.95 1013.79 1013.80 1013.71 1013.78 1013.94 1013.97 1013.81 1013.49 1012.98 1012.42 1012.05 1011.68 1010.95 1010.40 1011.14 1012.24 1013.03 1013.42 1013.55 1013.69 1013.53 1013.62
1015.96 1017.26 1017.67 1017.22 1016.43 1013.90 1011.14 1011.68 1012.48 1012.77 1012.46 1013.42 1013.73 1013.81 1013.99 1014.12 1013.74 1013.20 1013.62 1013.88 1014.02 1013.88 1013.75 1013.70 1013.60 1013.46 1013.62 1013.70 1013.74 1013.34 1012.85 1012.47 1012.10 1011.90 1011.66 1011.62 1012.57 1013.28 1013.71 1014.00 1014.23 1014.24 1014.22 1014.33
1015.39 1016.09 1016.38 1015.99 1015.79 1013.96 1012.40 1012.62 1012.87 1013.37 1014.15 1014.19 1014.16 1014.21 1014.30 1014.24 1014.39 1013.78 1013.89 1013.79 1014.09 1013.94 1013.77 1013.29 1013.00 1012.98 1013.13 1013.00 1013.17 1013.03 1012.74 1012.44 1012.33 1012.47 1012.55 1013.13 1013.79 1014.01 1014.45 1014.67 1014.69 1014.80 1014.77 1014.60
1014.28 1014.74 1014.51 1014.48 1014.53 1013.61 1013.35 1013.53 1014.00 1014.54 1014.46 1014.45 1014.23 1014.45 1014.33 1014.33 1014.20 1014.08 1014.03 1014.02 1014.02 1013.73 1013.53 1013.22 1012.88 1012.72 1012.53 1012.75 1012.82 1012.72 1012.69 1012.58 1012.55 1013.14 1013.62 1014.28 1014.63 1014.97 1015.14 1015.10 1015.24 1015.30 1014.94 1014.62
1014.25 1014.32 1014.80 1014.77 1013.70 1012.88 1013.30 1013.63 1014.29 1014.50 1014.53 1014.27 1014.20 1014.47 1014.95 1014.58 1014.31 1014.52 1014.05 1013.88 1013.83 1013.74 1013.26 1013.02 1012.76 1012.54 1012.52 1012.58 1012.83 1012.72 1012.67 1012.71 1013.38 1013.88 1014.56 1015.01 1015.44 1015.64 1015.66 1015.59 1015.26 1015.01 1014.84 1014.60
1013.77 1014.14 1014.50 1014.46 1014.15 1013.91 1013.99 1013.83 1014.30 1014.17 1014.13 1014.13 1014.32 1014.31 1014.65 1014.57 1014.56 1014.12 1014.11 1013.71 1013.73 1013.62 1013.30 1013.30 1013.02 1012.77 1012.70 1012.72 1012.67 1012.71 1012.85 1013.26 1013.99 1014.65 1015.22 1015.70 1015.80 1015.95 1015.79 1015.66 1015.34 1014.98 1014.86 1014.82
1014.14 1014.45 1014.48 1014.22 1014.23 1013.60 1013.76 1013.53 1013.93 1014.08 1014.38 1014.35 1014.40 1014.99 1015.19 1014.93 1014.50 1014.35 1013.91 1013.75 1013.68 1013.52 1013.37 1013.24 1012.81 1012.77 1012.64 1012.59 1012.64 1012.79 1013.26 1014.00 1014.66 1015.22 1015.78 1016.05 1016.24 1016.10 1016.10 1016.24 1016.06 1016.13 1016.61 1016.11
1014.12 1014.04 1014.26 1013.90 1013.85 1013.85 1013.55 1013.53 1013.82 1014.35 1014.32 1014.53 1015.13 1015.09 1015.04 1014.81 1014.38 1014.16 1014.03 1013.85 1013.60 1012.97 1012.78 1012.59 1012.47 1012.67 1012.54 1012.66 1012.80 1013.31 1013.97 1014.60 1015.12 1015.75 1016.10 1016.37 1015.84 1015.88 1016.13 1016.54 1017.16 1017.52 1017.24 1017.05
Thickness
5753 5747 5740 5736 5737 5737 5736 5732 5730 5743 5746 5726 5728 5729 5739 5748 5743 5737 5730 5719 5710 5704 5706 5704 5702 5702 5699 5698 5697 5697 5698 5702 5707 5712 5717 5724 5728 5732 5731 5730 5728 5729 5725 5718
5740 5734 5735 5734 5733 5729 5729 5727 5731 5735 5739 5722 5720 5722 5738 5744 5734 5723 5713 5704 5699 5696 5692 5690 5689 5687 5686 5685 5684 5685 5686 5691 5695 5703 5708 5713 5723 5731 5731 5729 5725 5724 5714 5706
5726 5735 5731 5724 5724 5721 5726 5717 5715 5703 5713 5719 5716 5716 5723 5723 5714 5708 5699 5695 5692 5686 5679 5677 5676 5675 5674 5673 5673 5672 5672 5676 5685 5690 5699 5704 5710 5718 5721 5723 5718 5718 5714 5700
5726 5735 5718 5717 5716 5718 5700 5714 5701 5695 5690 5683 5706 5681 5706 5720 5702 5690 5689 5684 5683 5675 5671 5667 5666 5665 5664 5664 5665 5663 5661 5663 5670 5678 5687 5691 5696 5705 5715 5716 5719 5716 5703 5702
5719 5716 5713 5707 5710 5706 5695 5702 5690 5689 5688 5689 5699 5693 5711 5717 5693 5691 5686 5679 5667 5662 5656 5653 5652 5653 5655 5655 5653 5650 5650 5650 5655 5662 5674 5680 5688 5698 5705 5708 5710 5714 5710 5690
5715 5724 5710 5709 5705 5700 5695 5688 5694 5700 5704 5678 5705 5679 5687 5696 5699 5688 5688 5678 5664 5654 5646 5641 5640 5639 5641 5643 5641 5637 5635 5636 5638 5645 5652 5667 5673 5678 5683 5698 5692 5687 5680 5677
5712 5712 5710 5700 5690 5701 5691 5674 5660 5666 5676 5682 5711 5681 5684 5689 5683 5670 5658 5655 5653 5640 5632 5626 5623 5621 5621 5620 5622 5619 5616 5618 5621 5626 5632 5645 5654 5659 5665 5668 5674 5671 5674 5679
5684 5675 5689 5691 5678 5668 5671 5667 5646 5635 5645 5656 5668 5657 5686 5678 5666 5647 5643 5636 5620 5615 5614 5610 5608 5603 5602 5601 5605 5601 5599 5599 5603 5609 5616 5628 5633 5639 5645 5649 5655 5658 5658 5662
5669 5673 5688 5683 5682 5671 5668 5655 5666 5636 5638 5641 5662 5672 5679 5662 5632 5629 5624 5613 5613 5607 5605 5601 5590 5585 5582 5583 5585 5587 5588 5586 5588 5592 5598 5610 5612 5622 5626 5631 5634 5626 5628 5642
5667 5646 5676 5674 5664 5669 5655 5663 5630 5629 5602 5606 5635 5631 5644 5626 5617 5621 5615 5599 5589 5600 5599 5587 5577 5575 5572 5574 5567 5565 5579 5575 5578 5580 5583 5588 5589 5604 5617 5620 5617 5609 5626 5633
5658 5649 5655 5663 5658 5654 5652 5648 5644 5637 5623 5600 5596 5615 5638 5619 5610 5598 5590 5575 5563 5560 5585 5580 5572 5569 5566 5564 5567 5568 5568 5568 5568 5568 5571 5570 5574 5585 5603 5606 5609 5611 5618 5615
5646 5633 5626 5643 5661 5651 5638 5628 5622 5596 5583 5590 5584 5585 5619 5615 5596 5580 5563 5562 5547 5539 5550 5549 5566 5561 5557 5555 5557 5556 5555 5555 5559 5560 5560 5561 5564 5570 5589 5595 5599 5602 5605 5603
5628 5618 5607 5632 5638 5631 5621 5626 5619 5607 5595 5575 5570 5584 5619 5612 5594 5580 5568 5564 5551 5535 5529 5524 5543 5553 5545 5550 5550 5550 5550 5547 5544 5548 5550 5550 5553 5555 5571 5579 5587 5587 5590 5592
5606 5601 5607 5608 5623 5626 5615 5615 5612 5599 5576 5578 5582 5589 5599 5584 5579 5577 5568 5560 5547 5535 5528 5532 5537 5544 5544 5544 5544 5541 5541 5544 5541 5537 5542 5547 5546 5551 5558 5569 5574 5574 5577 5575
5604 5597 5607 5615 5617 5615 5610 5607 5604 5595 5593 5579 5588 5586 5586 5573 5565 5564 5561 5545 5545 5539 5533 5532 5534 5535 5531 5533 5533 5530 5527 5528 5528 5527 5529 5543 5547 5549 5559 5560 5560 5560 5560 5562
5601 5575 5590 5598 5612 5614 5604 5604 5600 5598 5595 5590 5588 5580 5578 5566 5561 5551 5540 5538 5534 5528 5530 5525 5520 5525 5522 5527 5520 5514 5512 5515 5515 5517 5525 5534 5542 5548 5550 5547 5546 5547 5549 5549
5586 5570 5578 5588 5603 5588 5584 5602 5595 5590 5587 5580 5565 5572 5572 5559 5549 5543 5534 5530 5527 5521 5520 5520 5514 5512 5508 5507 5503 5504 5506 5506 5509 5513 5521 5526 5537 5541 5538 5536 5534 5536 5536 5534
5573 5545 5564 5565 5569 5556 5597 5599 5585 5579 5577 5577 5574 5569 5553 5547 5541 5536 5531 5524 5518 5514 5507 5504 5500 5499 5496 5494 5493 5494 5500 5504 5507 5511 5516 5528 5534 5530 5526 5524 5524 5524 5522 5520
5580 5557 5546 5542 5545 5567 5587 5583 5570 5561 5561 5565 5556 5546 5540 5535 5534 5534 5526 5514 5505 5502 5500 5496 5494 5491 5487 5485 5486 5489 5495 5502 5507 5511 5519 5528 5526 5520 5515 5515 5514 5511 5510 5506
5577 5561 5544 5543 5525 5545 5585 5574 5566 5559 5547 5545 5542 5537 5532 5527 5515 5526 5518 5510 5503 5501 5499 5494 5491 5489 5484 5481 5482 5488 5495 5502 5507 5508 5513 5517 5513 5510 5509 5506 5503 5501 5498 5492
5560 5553 5545 5542 5526 5550 5569 5562 5556 5529 5529 5533 5532 5530 5526 5521 5515 5514 5509 5505 5499 5497 5495 5496 5495 5491 5486 5486 5487 5491 5496 5502 5506 5507 5508 5506 5502 5502 5500 5498 5495 5491 5488 5485
5565 5556 5558 5554 5537 5535 5553 5545 5527 5526 5529 5526 5528 5521 5521 5518 5513 5508 5502 5496 5491 5493 5492 5492 5492 5490 5491 5488 5490 5493 5496 5502 5505 5502 5499 5496 5495 5493 5492 5491 5488 5484 5482 5479
5550 5557 5543 5543 5548 5558 5549 5537 5529 5524 5519 5521 5520 5516 5505 5505 5506 5495 5495 5490 5485 5484 5489 5490 5492 5492 5491 5490 5490 5494 5500 5504 5498 5496 5492 5489 5488 5488 5488 5487 5485 5484 5481 5476
5559 5555 5539 5537 5542 5536 5532 5531 5522 5522 5518 5518 5514 5512 5505 5501 5494 5494 5485 5485 5480 5478 5483 5483 5487 5489 5488 5490 5494 5498 5501 5498 5494 5490 5488 5487 5488 5488 5486 5484 5483 5484 5482 5479
5545 5539 5533 5530 5530 5532 5526 5525 5517 5515 5509 5508 5507 5495 5489 5487 5487 5482 5482 5477 5474 5472 5474 5479 5486 5489 5492 5493 5497 5499 5497 5494 5493 5490 5488 5487 5485 5487 5484 5479 5479 5473 5465 5468
5538 5532 5521 5519 5524 5518 5519 5518 5512 5502 5502 5498 5486 5484 5485 5483 5482 5479 5476 5473 5470 5476 5480 5486 5489 5494 5497 5496 5498 5497 5496 5494 5492 5490 5487 5486 5493 5494 5490 5485 5474 5466 5465 5464